Tracking 18987 objects as of 25-Feb-2018
HD Live streaming from Space Station
objects crossing your sky now

NOAA 16 DEB

Track NOAA 16 DEB now!
10-day predictions


NORAD ID: 41059
Int'l Code: 2000-055S
Perigee: 832.3 km
Apogee: 863.2 km
Inclination: 98.9 °
Period: 101.7 minutes
Semi major axis: 7218 km
RCS: Unknown
Launch date: September 21, 2000
Source: United States (US)
Launch site: AIR FORCE WESTERN TEST RANGE (AFWTR)

Note: This is SATELLITE DEBRIS
aabbcc
Your satellite tracking list
Your tracking list is empty




NASA's NSSDC Master Catalog

Two Line Element Set (TLE):
1 41059U 00055S   18055.80685960  .00000134  00000-0  91056-4 0  9993
2 41059  98.8561 135.3301 0021376 329.6033  30.3900 14.15494943116310
Source of the keplerian elements: AFSPC